Weather History for Fort Wayne, IN

Change the Weather History Date:

Wednesday, December 26, 2012

  Actual Average Record
Temperature  
Mean Temperature 29 °F 26 °F  
Max Temperature 30 °F 34 °F 54 °F (1940)
Min Temperature 27 °F 19 °F -6 °F (1983)
Degree Days  
Heating Degree Days 36 39  
Month to date heating degree days 686 916  
Since 1 July heating degree days 2007 2133  
Cooling Degree Days 0 0  
Month to date cooling degree days 0 0  
Year to date cooling degree days 1108 809  
Moisture  
Dew Point 25 °F    
Average Humidity 82    
Maximum Humidity 92    
Minimum Humidity 72    
Precipitation  
Precipitation 0.22 in 0.09 in 1.10 in (1916)
Month to date precipitation 1.88 2.35  
Year to date precipitation 28.26 37.92  
Snow  
Snow 3.10 in 0.30 in 4.30 in (1988)
Month to date snowfall 4.6 6.8  
Since 1 July snowfall 5.2 8.9  
Snow Depth 0.00 in    
Sea Level Pressure  
Sea Level Pressure 29.90 in    
Wind  
Wind Speed 19 mph (NNE)    
Max Wind Speed 32 mph    
Max Gust Speed 40 mph    
Visibility 6 miles    
Events Fog , Snow    
T = Trace of Precipitation, MM = Missing Value Source: NWS Daily Summary

Daily Weather History Graph

Daily Weather History Graph

Search for Another Location

Airport:

Trip Planner

Search our weather history database for the weather conditions in past years. The results will help you decide how hot, cold, wet, or windy it might be!

Date:

Astronomy

Dec. 26, 2012 Rise Set
Actual Time 8:04 AM EST 5:18 PM EST
Civil Twilight 7:33 AM EST 5:50 PM EST
Nautical Twilight 6:58 AM EST 6:24 PM EST
Astronomical Twilight 6:25 AM EST 6:58 PM EST
Moon 4:12 PM EST (12/26) 6:27 AM EST (12/26)
Length of Visible Light 10h 16m
Length of Day
9h 14m
Waxing Gibbous, 97% of the Moon is Illuminated
Dec 26
Waxing Gibbous
Dec 28
Full
Jan 4
Last Quarter
Jan 11
New
Jan 18
First Quarter

Hourly Weather History & Observations

Time (EST) Temp. Windchill Dew Point Humidity Pressure Visibility Wind Dir Wind Speed Gust Speed Precip Events Conditions
12:54 AM 30.0 °F 18.3 °F 23.0 °F 75% 30.16 in 10.0 mi ENE 17.3 mph 26.5 mph N/A   Overcast
1:54 AM 30.2 °F 18.5 °F 24.8 °F 80% 30.11 in 10.0 mi NE 17.3 mph 24.2 mph N/A   Overcast
2:19 AM 30.2 °F 18.9 °F 24.8 °F 80% 30.10 in 10.0 mi NE 16.1 mph 26.5 mph N/A   Overcast
2:54 AM 30.0 °F 18.3 °F 24.1 °F 79% 30.08 in 10.0 mi NE 17.3 mph 28.8 mph N/A   Overcast
3:05 AM 30.2 °F 18.5 °F 24.8 °F 80% 30.06 in 10.0 mi NE 17.3 mph 25.3 mph N/A   Overcast
3:27 AM 30.2 °F 16.5 °F 24.8 °F 80% 30.03 in 10.0 mi ENE 24.2 mph 29.9 mph N/A   Overcast
3:54 AM 30.0 °F 17.5 °F 24.1 °F 79% 30.04 in 10.0 mi NE 19.6 mph 28.8 mph N/A   Overcast
4:54 AM 30.0 °F 17.5 °F 24.1 °F 79% 30.02 in 10.0 mi NE 19.6 mph - N/A   Overcast
5:54 AM 30.0 °F 17.2 °F 24.1 °F 79% 29.98 in 10.0 mi NE 20.7 mph 34.5 mph N/A   Overcast
6:54 AM 30.0 °F 16.3 °F 24.1 °F 79% 29.97 in 10.0 mi NE 24.2 mph 33.4 mph N/A   Overcast
7:54 AM 30.0 °F 14.9 °F 24.1 °F 79% 29.91 in 10.0 mi NE 29.9 mph 36.8 mph N/A   Overcast
8:54 AM 30.0 °F 15.2 °F 25.0 °F 82% 29.88 in 4.0 mi NE 28.8 mph 39.1 mph 0.00 in Snow Light Snow
9:02 AM 30.2 °F 15.4 °F 24.8 °F 80% 29.85 in 1.5 mi NE 28.8 mph 38.0 mph 0.00 in Snow Light Snow
9:29 AM 28.4 °F 14.7 °F 26.6 °F 93% 29.84 in 0.8 mi NE 21.9 mph 32.2 mph 0.00 in Snow Light Snow
9:43 AM 28.4 °F 13.0 °F 26.6 °F 93% 29.84 in 0.8 mi NE 28.8 mph 39.1 mph 0.01 in Snow Light Snow
9:54 AM 28.9 °F 15.8 °F 26.1 °F 89% 29.86 in 0.8 mi NNE 20.7 mph 33.4 mph 0.02 in Snow Light Snow
10:31 AM 28.4 °F 15.4 °F 26.6 °F 93% 29.84 in 0.8 mi NE 19.6 mph 27.6 mph 0.04 in Snow Light Snow
10:54 AM 28.9 °F 16.5 °F 27.0 °F 92% 29.86 in 0.5 mi NNE 18.4 mph 28.8 mph 0.06 in Fog , Snow Snow
11:24 AM 28.4 °F 15.1 °F 26.6 °F 93% 29.83 in 0.8 mi NNE 20.7 mph 33.4 mph 0.02 in Snow Light Snow
11:32 AM 28.4 °F 15.4 °F 26.6 °F 93% 29.82 in 0.5 mi NE 19.6 mph 33.4 mph 0.02 in Fog , Snow Snow
11:54 AM 28.9 °F 15.1 °F 27.0 °F 92% 29.84 in 0.5 mi NNE 23.0 mph 29.9 mph 0.05 in Fog , Snow Snow
12:30 PM 28.4 °F 14.4 °F 26.6 °F 93% 29.79 in 0.8 mi NE 23.0 mph 31.1 mph 0.04 in Snow Light Snow
12:50 PM 28.4 °F 15.8 °F 26.6 °F 93% 29.78 in 1.0 mi NNE 18.4 mph 26.5 mph 0.05 in Snow Light Snow
12:54 PM 30.0 °F 17.9 °F 27.0 °F 88% 29.81 in 1.5 mi NNE 18.4 mph 29.9 mph 0.05 in Snow Light Snow
12:59 PM 30.2 °F 16.8 °F 26.6 °F 86% 29.78 in 2.0 mi NNE 23.0 mph 31.1 mph 0.00 in Snow Light Snow
1:23 PM 30.2 °F 18.1 °F 26.6 °F 86% 29.77 in 1.2 mi NNE 18.4 mph 27.6 mph 0.00 in Snow Light Snow
1:36 PM 30.2 °F 18.1 °F 26.6 °F 86% 29.76 in 0.8 mi NNE 18.4 mph 32.2 mph 0.01 in Snow Light Snow
1:54 PM 28.9 °F 15.8 °F 27.0 °F 92% 29.79 in 0.8 mi NNE 20.7 mph 34.5 mph 0.01 in Snow Light Snow
2:08 PM 28.4 °F 14.4 °F 26.6 °F 93% 29.76 in 1.0 mi NNE 23.0 mph 28.8 mph 0.00 in Snow Light Snow
2:29 PM 28.4 °F 15.1 °F 26.6 °F 93% 29.76 in 1.0 mi NNE 20.7 mph 27.6 mph 0.01 in Snow Light Snow
3:54 PM 28.9 °F 16.1 °F 26.1 °F 89% 29.81 in 1.5 mi NNE 19.6 mph 27.6 mph 0.01 in Snow Light Snow
4:28 PM 28.4 °F 16.2 °F 26.6 °F 93% 29.80 in 2.0 mi North 17.3 mph - 0.00 in Snow Light Snow
4:51 PM 28.4 °F 16.6 °F 26.6 °F 93% 29.81 in 4.0 mi North 16.1 mph - 0.00 in Snow Light Snow
4:54 PM 28.9 °F 16.1 °F 26.1 °F 89% 29.84 in 4.0 mi North 19.6 mph - 0.00 in Snow Light Snow
5:54 PM 28.9 °F 16.5 °F 25.0 °F 85% 29.86 in 10.0 mi North 18.4 mph 27.6 mph 0.00 in   Overcast
6:54 PM 28.0 °F 14.9 °F 23.0 °F 81% 29.88 in 10.0 mi North 19.6 mph 31.1 mph N/A   Overcast
7:54 PM 28.0 °F 16.1 °F 21.9 °F 78% 29.91 in 10.0 mi North 16.1 mph - N/A   Overcast
8:28 PM 26.6 °F 13.1 °F 21.2 °F 80% 29.88 in 10.0 mi North 19.6 mph 26.5 mph N/A   Overcast
8:54 PM 27.0 °F 15.6 °F 21.0 °F 78% 29.92 in 10.0 mi North 13.8 mph - N/A   Overcast
9:54 PM 27.0 °F 16.1 °F 21.9 °F 81% 29.93 in 10.0 mi NNW 12.7 mph - N/A   Overcast
10:08 PM 26.6 °F 14.7 °F 21.2 °F 80% 29.90 in 10.0 mi North 15.0 mph - N/A   Overcast
10:54 PM 27.0 °F 16.7 °F 23.0 °F 85% 29.95 in 10.0 mi NNW 11.5 mph - N/A   Overcast
11:54 PM 27.0 °F 15.2 °F 21.9 °F 81% 29.96 in 10.0 mi NNW 15.0 mph - N/A   Overcast